North Central West Virginia Airport

Airport
ICAO code: 
KCKB
Summary
ICAO Region: 
NAM
Territory: 
Location: 
Clarksburg, West Virginia,
Coordinates: 
Aerial View: 
39° 17' 47" N, 80° 13' 41.002" W
Airport WX: 
Cumulonimbus
Metar
Observation
KCKB 241653Z 22011KT 10SM SCT070 BKN120 M02/M08 A2980 RMK AO2 SLP098 T10171083
Station
Clarksburg, Clarksburg Benedum Airport
Date/Time
2022-01-24 16:53:00
Wind direction
220°
Wind speed
11 kts
Lowest cloud amount
scattered clouds
Temperature
-1.7°C
Dew point
-8.3°C
Humidity
60%
Weather condition
n/a

Description

North Central West Virginia Airport is a joint use public and military airport located 2 km northeast of the central business district of Bridgeport, a city in Harrison County, West Virginia.

Climatology

Humid “subtropical” climate (Köppen climate classification Cfa) - characterized by hot, humid summers and cool winters. Significant amounts of precipitation occur in all seasons in most areas. Winter rainfall (and sometimes snowfall) is associated with large storms that the westerlies steer from west to east. Most summer rainfall occurs during thunderstorms.

Runways

Designator Length Width Surface Rops
3/21 2134 46 ASP Yes/Yes
Airport map: 
Aerial View: 

SKYbrary Partners:

Safety knowledge contributed by: